Year,Month,Day,Hour,Minute,Value (Times are PST for barometer in hPa)
2019,02,14,00,00,998.75
2019,02,14,00,01,998.71
2019,02,14,00,02,998.68
2019,02,14,00,03,998.65
2019,02,14,00,04,998.71
2019,02,14,00,05,998.68
2019,02,14,00,06,998.71
2019,02,14,00,07,998.61
2019,02,14,00,08,998.58
2019,02,14,00,09,998.54
2019,02,14,00,10,998.48
2019,02,14,00,11,998.64
2019,02,14,00,12,998.65
2019,02,14,00,13,998.61
2019,02,14,00,14,998.54
2019,02,14,00,15,998.65
2019,02,14,00,16,998.54
2019,02,14,00,17,998.60
2019,02,14,00,18,998.54
2019,02,14,00,19,998.51
2019,02,14,00,20,998.41
2019,02,14,00,21,998.50
2019,02,14,00,22,998.44
2019,02,14,00,23,998.44
2019,02,14,00,24,998.48
2019,02,14,00,25,998.51
2019,02,14,00,26,998.58
2019,02,14,00,27,998.45
2019,02,14,00,28,998.51
2019,02,14,00,29,998.44
2019,02,14,00,30,998.39
2019,02,14,00,31,998.38
2019,02,14,00,32,998.38
2019,02,14,00,33,998.48
2019,02,14,00,34,998.34
2019,02,14,00,35,998.38
2019,02,14,00,36,998.43
2019,02,14,00,37,998.38
2019,02,14,00,38,998.41
2019,02,14,00,39,998.48
2019,02,14,00,40,998.38
2019,02,14,00,41,998.41
2019,02,14,00,42,998.44
2019,02,14,00,43,998.32
2019,02,14,00,44,998.27
2019,02,14,00,45,998.31
2019,02,14,00,46,998.31
2019,02,14,00,47,998.27
2019,02,14,00,48,998.31
2019,02,14,00,49,998.38
2019,02,14,00,50,998.24
2019,02,14,00,51,998.31
2019,02,14,00,52,998.27
2019,02,14,00,53,998.11
2019,02,14,00,54,998.23
2019,02,14,00,55,998.24
2019,02,14,00,56,998.08
2019,02,14,00,57,998.10
2019,02,14,00,58,998.07
2019,02,14,00,59,997.97
2019,02,14,01,00,997.97
2019,02,14,01,01,997.87
2019,02,14,01,02,997.87
2019,02,14,01,03,997.78
2019,02,14,01,04,997.83
2019,02,14,01,05,997.80
2019,02,14,01,06,997.77
2019,02,14,01,07,997.61
2019,02,14,01,08,997.66
2019,02,14,01,09,997.76
2019,02,14,01,10,997.83
2019,02,14,01,11,997.87
2019,02,14,01,12,997.83
2019,02,14,01,13,997.80
2019,02,14,01,14,997.77
2019,02,14,01,15,997.83
2019,02,14,01,16,997.77
2019,02,14,01,17,997.80
2019,02,14,01,18,997.83
2019,02,14,01,19,997.80
2019,02,14,01,20,997.77
2019,02,14,01,21,997.77
2019,02,14,01,22,997.64
2019,02,14,01,23,997.66
2019,02,14,01,24,997.70
2019,02,14,01,25,997.61
2019,02,14,01,26,997.66
2019,02,14,01,27,997.60
2019,02,14,01,28,997.63
2019,02,14,01,29,997.60
2019,02,14,01,30,997.60
2019,02,14,01,31,997.53
2019,02,14,01,32,997.63
2019,02,14,01,33,997.57
2019,02,14,01,34,997.65
2019,02,14,01,35,997.77
2019,02,14,01,36,997.61
2019,02,14,01,37,997.63
2019,02,14,01,38,997.63
2019,02,14,01,39,997.70
2019,02,14,01,40,997.73
2019,02,14,01,41,997.63
2019,02,14,01,42,997.73
2019,02,14,01,43,997.70
2019,02,14,01,44,997.66
2019,02,14,01,45,997.73
2019,02,14,01,46,997.63
2019,02,14,01,47,997.60
2019,02,14,01,48,997.60
2019,02,14,01,49,997.53
2019,02,14,01,50,997.50
2019,02,14,01,51,997.50
2019,02,14,01,52,997.43
2019,02,14,01,53,997.43
2019,02,14,01,54,997.34
2019,02,14,01,55,997.43
2019,02,14,01,56,997.39
2019,02,14,01,57,997.36
2019,02,14,01,58,997.36
2019,02,14,01,59,997.36
2019,02,14,02,00,997.36
2019,02,14,02,01,997.43
2019,02,14,02,02,997.34
2019,02,14,02,03,997.45
2019,02,14,02,04,997.46
2019,02,14,02,05,997.30
2019,02,14,02,06,997.39
2019,02,14,02,07,997.39
2019,02,14,02,08,997.34
2019,02,14,02,09,997.22
2019,02,14,02,10,997.16
2019,02,14,02,11,997.05
2019,02,14,02,12,997.18
2019,02,14,02,13,997.05
2019,02,14,02,14,997.09
2019,02,14,02,15,997.00
2019,02,14,02,16,997.05
2019,02,14,02,17,996.92
2019,02,14,02,18,996.95
2019,02,14,02,19,997.08
2019,02,14,02,20,996.96
2019,02,14,02,21,996.99
2019,02,14,02,22,996.99
2019,02,14,02,23,996.99
2019,02,14,02,24,996.90
2019,02,14,02,25,996.92
2019,02,14,02,26,996.85
2019,02,14,02,27,996.78
2019,02,14,02,28,996.84
2019,02,14,02,29,996.89
2019,02,14,02,30,996.82
2019,02,14,02,31,996.78
2019,02,14,02,32,996.82
2019,02,14,02,33,996.69
2019,02,14,02,34,996.81
2019,02,14,02,35,996.75
2019,02,14,02,36,996.75
2019,02,14,02,37,996.75
2019,02,14,02,38,996.75
2019,02,14,02,39,996.78
2019,02,14,02,40,996.82
2019,02,14,02,41,996.78
2019,02,14,02,42,996.62
2019,02,14,02,43,996.65
2019,02,14,02,44,996.61
2019,02,14,02,45,996.55
2019,02,14,02,46,996.55
2019,02,14,02,47,996.55
2019,02,14,02,48,996.46
2019,02,14,02,49,996.45
2019,02,14,02,50,996.41
2019,02,14,02,51,996.45
2019,02,14,02,52,996.41
2019,02,14,02,53,996.41
2019,02,14,02,54,996.38
2019,02,14,02,55,996.28
2019,02,14,02,56,996.37
2019,02,14,02,57,996.34
2019,02,14,02,58,996.34
2019,02,14,02,59,996.28
2019,02,14,03,00,996.21
2019,02,14,03,01,996.33
2019,02,14,03,02,996.28
2019,02,14,03,03,996.34
2019,02,14,03,04,996.28
2019,02,14,03,05,996.31
2019,02,14,03,06,996.28
2019,02,14,03,07,996.17
2019,02,14,03,08,996.14
2019,02,14,03,09,996.11
2019,02,14,03,10,996.11
2019,02,14,03,11,996.04
2019,02,14,03,12,996.04
2019,02,14,03,13,996.04
2019,02,14,03,14,996.01
2019,02,14,03,15,996.01
2019,02,14,03,16,995.94
2019,02,14,03,17,995.84
2019,02,14,03,18,995.84
2019,02,14,03,19,995.84
2019,02,14,03,20,995.80
2019,02,14,03,21,995.80
2019,02,14,03,22,995.73
2019,02,14,03,23,995.73
2019,02,14,03,24,995.84
2019,02,14,03,25,995.73
2019,02,14,03,26,995.70
2019,02,14,03,27,995.73
2019,02,14,03,28,995.70
2019,02,14,03,29,995.77
2019,02,14,03,30,995.70
2019,02,14,03,31,995.70
2019,02,14,03,32,995.67
2019,02,14,03,33,995.76
2019,02,14,03,34,995.84
2019,02,14,03,35,995.77
2019,02,14,03,36,995.73
2019,02,14,03,37,995.80
2019,02,14,03,38,995.93
2019,02,14,03,39,995.81
2019,02,14,03,40,995.84
2019,02,14,03,41,995.78
2019,02,14,03,42,995.87
2019,02,14,03,43,995.84
2019,02,14,03,44,995.84
2019,02,14,03,45,995.71
2019,02,14,03,46,995.80
2019,02,14,03,47,995.77
2019,02,14,03,48,995.70
2019,02,14,03,49,995.67
2019,02,14,03,50,995.54
2019,02,14,03,51,995.62
2019,02,14,03,52,995.67
2019,02,14,03,53,995.56
2019,02,14,03,54,995.53
2019,02,14,03,55,995.44
2019,02,14,03,56,995.55
2019,02,14,03,57,995.60
2019,02,14,03,58,995.47
2019,02,14,03,59,995.50
2019,02,14,04,00,995.50
2019,02,14,04,01,995.55
2019,02,14,04,02,995.50
2019,02,14,04,03,995.53
2019,02,14,04,04,995.50
2019,02,14,04,05,995.53
2019,02,14,04,06,995.41
2019,02,14,04,07,995.49
2019,02,14,04,08,995.41
2019,02,14,04,09,995.46
2019,02,14,04,10,995.40
2019,02,14,04,11,995.40
2019,02,14,04,12,995.43
2019,02,14,04,13,995.40
2019,02,14,04,14,995.43
2019,02,14,04,15,995.36
2019,02,14,04,16,995.40
2019,02,14,04,17,995.29
2019,02,14,04,18,995.26
2019,02,14,04,19,995.35
2019,02,14,04,20,995.29
2019,02,14,04,21,995.33
2019,02,14,04,22,995.27
2019,02,14,04,23,995.33
2019,02,14,04,24,995.27
2019,02,14,04,25,995.26
2019,02,14,04,26,995.16
2019,02,14,04,27,995.19
2019,02,14,04,28,995.12
2019,02,14,04,29,995.12
2019,02,14,04,30,995.12
2019,02,14,04,31,995.19
2019,02,14,04,32,995.19
2019,02,14,04,33,995.10
2019,02,14,04,34,995.02
2019,02,14,04,35,994.99
2019,02,14,04,36,994.99
2019,02,14,04,37,995.05
2019,02,14,04,38,995.11
2019,02,14,04,39,994.99
2019,02,14,04,40,995.06
2019,02,14,04,41,994.90
2019,02,14,04,42,994.85
2019,02,14,04,43,994.72
2019,02,14,04,44,994.84
2019,02,14,04,45,994.79
2019,02,14,04,46,994.82
2019,02,14,04,47,994.79
2019,02,14,04,48,994.68
2019,02,14,04,49,994.74
2019,02,14,04,50,994.75
2019,02,14,04,51,994.62
2019,02,14,04,52,994.67
2019,02,14,04,53,994.68
2019,02,14,04,54,994.72
2019,02,14,04,55,994.68
2019,02,14,04,56,994.79
2019,02,14,04,57,994.69
2019,02,14,04,58,994.72
2019,02,14,04,59,994.68
2019,02,14,05,00,994.68
2019,02,14,05,01,994.74
2019,02,14,05,02,994.79
2019,02,14,05,03,994.69
2019,02,14,05,04,994.65
2019,02,14,05,05,994.55
2019,02,14,05,06,994.64
2019,02,14,05,07,994.62
2019,02,14,05,08,994.62
2019,02,14,05,09,994.55
2019,02,14,05,10,994.55
2019,02,14,05,11,994.52
2019,02,14,05,12,994.48
2019,02,14,05,13,994.57
2019,02,14,05,14,994.62
2019,02,14,05,15,994.53
2019,02,14,05,16,994.58
2019,02,14,05,17,994.46
2019,02,14,05,18,994.58
2019,02,14,05,19,994.55
2019,02,14,05,20,994.52
2019,02,14,05,21,994.55
2019,02,14,05,22,994.46
2019,02,14,05,23,994.52
2019,02,14,05,24,994.52
2019,02,14,05,25,994.52
2019,02,14,05,26,994.61
2019,02,14,05,27,994.48
2019,02,14,05,28,994.45
2019,02,14,05,29,994.39
2019,02,14,05,30,994.47
2019,02,14,05,31,994.32
2019,02,14,05,32,994.31
2019,02,14,05,33,994.28
2019,02,14,05,34,994.22
2019,02,14,05,35,994.24
2019,02,14,05,36,994.15
2019,02,14,05,37,994.14
2019,02,14,05,38,994.14
2019,02,14,05,39,994.11
2019,02,14,05,40,994.04
2019,02,14,05,41,994.10
2019,02,14,05,42,994.11
2019,02,14,05,43,994.07
2019,02,14,05,44,994.11
2019,02,14,05,45,994.11
2019,02,14,05,46,994.04
2019,02,14,05,47,994.07
2019,02,14,05,48,994.04
2019,02,14,05,49,993.91
2019,02,14,05,50,993.97
2019,02,14,05,51,993.94
2019,02,14,05,52,993.88
2019,02,14,05,53,993.87
2019,02,14,05,54,993.91
2019,02,14,05,55,993.91
2019,02,14,05,56,993.87
2019,02,14,05,57,993.91
2019,02,14,05,58,993.91
2019,02,14,05,59,993.94
2019,02,14,06,00,993.91
2019,02,14,06,01,993.87
2019,02,14,06,02,993.84
2019,02,14,06,03,993.93
2019,02,14,06,04,993.80
2019,02,14,06,05,993.91
2019,02,14,06,06,993.94
2019,02,14,06,07,993.81
2019,02,14,06,08,993.80
2019,02,14,06,09,993.74
2019,02,14,06,10,993.67
2019,02,14,06,11,993.74
2019,02,14,06,12,993.63
2019,02,14,06,13,993.74
2019,02,14,06,14,993.70
2019,02,14,06,15,993.77
2019,02,14,06,16,993.74
2019,02,14,06,17,993.74
2019,02,14,06,18,993.77
2019,02,14,06,19,993.67
2019,02,14,06,20,993.70
2019,02,14,06,21,993.70
2019,02,14,06,22,993.60
2019,02,14,06,23,993.53
2019,02,14,06,24,993.57
2019,02,14,06,25,993.51
2019,02,14,06,26,993.47
2019,02,14,06,27,993.59
2019,02,14,06,28,993.57
2019,02,14,06,29,993.53
2019,02,14,06,30,993.57
2019,02,14,06,31,993.47
2019,02,14,06,32,993.37
2019,02,14,06,33,993.33
2019,02,14,06,34,993.26
2019,02,14,06,35,993.33
2019,02,14,06,36,993.20
2019,02,14,06,37,993.14
2019,02,14,06,38,993.18
2019,02,14,06,39,993.19
2019,02,14,06,40,993.14
2019,02,14,06,41,993.16
2019,02,14,06,42,993.13
2019,02,14,06,43,993.04
2019,02,14,06,44,993.09
2019,02,14,06,45,993.03
2019,02,14,06,46,992.96
2019,02,14,06,47,992.87
2019,02,14,06,48,992.86
2019,02,14,06,49,992.79
2019,02,14,06,50,992.79
2019,02,14,06,51,992.82
2019,02,14,06,52,992.82
2019,02,14,06,53,992.73
2019,02,14,06,54,992.72
2019,02,14,06,55,992.65
2019,02,14,06,56,992.62
2019,02,14,06,57,992.65
2019,02,14,06,58,992.62
2019,02,14,06,59,992.55
2019,02,14,07,00,992.48
2019,02,14,07,01,992.55
2019,02,14,07,02,992.48
2019,02,14,07,03,992.48
2019,02,14,07,04,992.48
2019,02,14,07,05,992.57
2019,02,14,07,06,992.53
2019,02,14,07,07,992.42
2019,02,14,07,08,992.38
2019,02,14,07,09,992.35
2019,02,14,07,10,992.35
2019,02,14,07,11,992.31
2019,02,14,07,12,992.26
2019,02,14,07,13,992.34
2019,02,14,07,14,992.35
2019,02,14,07,15,992.28
2019,02,14,07,16,992.31
2019,02,14,07,17,992.26
2019,02,14,07,18,992.28
2019,02,14,07,19,992.22
2019,02,14,07,20,992.18
2019,02,14,07,21,992.24
2019,02,14,07,22,992.12
2019,02,14,07,23,992.18
2019,02,14,07,24,992.14
2019,02,14,07,25,992.11
2019,02,14,07,26,992.04
2019,02,14,07,27,991.98
2019,02,14,07,28,991.94
2019,02,14,07,29,991.98
2019,02,14,07,30,991.94
2019,02,14,07,31,991.98
2019,02,14,07,32,991.91
2019,02,14,07,33,991.82
2019,02,14,07,34,991.74
2019,02,14,07,35,991.58
2019,02,14,07,36,991.51
2019,02,14,07,37,991.53
2019,02,14,07,38,991.47
2019,02,14,07,39,991.56
2019,02,14,07,40,991.60
2019,02,14,07,41,991.57
2019,02,14,07,42,991.53
2019,02,14,07,43,991.50
2019,02,14,07,44,991.50
2019,02,14,07,45,991.47
2019,02,14,07,46,991.47
2019,02,14,07,47,991.43
2019,02,14,07,48,991.50
2019,02,14,07,49,991.41
2019,02,14,07,50,991.40
2019,02,14,07,51,991.47
2019,02,14,07,52,991.41
2019,02,14,07,53,991.37
2019,02,14,07,54,991.37
2019,02,14,07,55,991.40
2019,02,14,07,56,991.47
2019,02,14,07,57,991.47
2019,02,14,07,58,991.40
2019,02,14,07,59,991.50
2019,02,14,08,00,991.50
2019,02,14,08,01,991.56
2019,02,14,08,02,991.57
2019,02,14,08,03,991.48
2019,02,14,08,04,991.47
2019,02,14,08,05,991.50
2019,02,14,08,06,991.43
2019,02,14,08,07,991.38
2019,02,14,08,08,991.30
2019,02,14,08,09,991.33
2019,02,14,08,10,991.30
2019,02,14,08,11,991.30
2019,02,14,08,12,991.23
2019,02,14,08,13,991.16
2019,02,14,08,14,991.32
2019,02,14,08,15,991.14
2019,02,14,08,16,991.16
2019,02,14,08,17,991.16
2019,02,14,08,18,991.16
2019,02,14,08,19,991.09
2019,02,14,08,20,991.20
2019,02,14,08,21,991.14
2019,02,14,08,22,991.13
2019,02,14,08,23,991.13
2019,02,14,08,24,991.16
2019,02,14,08,25,991.13
2019,02,14,08,26,991.16
2019,02,14,08,27,991.13
2019,02,14,08,28,991.13
2019,02,14,08,29,991.13
2019,02,14,08,30,991.20
2019,02,14,08,31,991.14
2019,02,14,08,32,991.16
2019,02,14,08,33,991.16
2019,02,14,08,34,991.09
2019,02,14,08,35,990.97
2019,02,14,08,36,991.08
2019,02,14,08,37,991.00
2019,02,14,08,38,991.09
2019,02,14,08,39,990.97
2019,02,14,08,40,990.93
2019,02,14,08,41,990.96
2019,02,14,08,42,990.93
2019,02,14,08,43,990.86
2019,02,14,08,44,990.89
2019,02,14,08,45,990.89
2019,02,14,08,46,990.79
2019,02,14,08,47,990.82
2019,02,14,08,48,990.79
2019,02,14,08,49,990.85
2019,02,14,08,50,990.82
2019,02,14,08,51,990.86
2019,02,14,08,52,990.79
2019,02,14,08,53,990.82
2019,02,14,08,54,990.79
2019,02,14,08,55,990.79
2019,02,14,08,56,990.85
2019,02,14,08,57,990.73
2019,02,14,08,58,990.69
2019,02,14,08,59,990.72
2019,02,14,09,00,990.66
2019,02,14,09,01,990.65
2019,02,14,09,02,990.65
2019,02,14,09,03,990.56
2019,02,14,09,04,990.68
2019,02,14,09,05,990.60
2019,02,14,09,06,990.50
2019,02,14,09,07,990.58
2019,02,14,09,08,990.55
2019,02,14,09,09,990.49
2019,02,14,09,10,990.52
2019,02,14,09,11,990.49
2019,02,14,09,12,990.49
2019,02,14,09,13,990.49
2019,02,14,09,14,990.52
2019,02,14,09,15,990.43
2019,02,14,09,16,990.45
2019,02,14,09,17,990.52
2019,02,14,09,18,990.49
2019,02,14,09,19,990.52
2019,02,14,09,20,990.43
2019,02,14,09,21,990.45
2019,02,14,09,22,990.49
2019,02,14,09,23,990.45
2019,02,14,09,24,990.42
2019,02,14,09,25,990.42
2019,02,14,09,26,990.48
2019,02,14,09,27,990.39
2019,02,14,09,28,990.48
2019,02,14,09,29,990.39
2019,02,14,09,30,990.38
2019,02,14,09,31,990.33
2019,02,14,09,32,990.35
2019,02,14,09,33,990.35
2019,02,14,09,34,990.41
2019,02,14,09,35,990.38
2019,02,14,09,36,990.26
2019,02,14,09,37,990.32
2019,02,14,09,38,990.26
2019,02,14,09,39,990.28
2019,02,14,09,40,990.32
2019,02,14,09,41,990.22
2019,02,14,09,42,990.21
2019,02,14,09,43,990.12
2019,02,14,09,44,990.11
2019,02,14,09,45,990.11
2019,02,14,09,46,990.15
2019,02,14,09,47,990.09
2019,02,14,09,48,990.11
2019,02,14,09,49,990.15
2019,02,14,09,50,990.09
2019,02,14,09,51,990.20
2019,02,14,09,52,990.12
2019,02,14,09,53,990.15
2019,02,14,09,54,990.15
2019,02,14,09,55,990.09
2019,02,14,09,56,990.08
2019,02,14,09,57,990.08
2019,02,14,09,58,990.04
2019,02,14,09,59,990.10
2019,02,14,10,00,990.11
2019,02,14,10,01,990.02
2019,02,14,10,02,990.04
2019,02,14,10,03,990.04
2019,02,14,10,04,990.01
2019,02,14,10,05,990.10
2019,02,14,10,06,990.02
2019,02,14,10,07,989.98
2019,02,14,10,08,989.98
2019,02,14,10,09,989.94
2019,02,14,10,10,989.98
2019,02,14,10,11,989.98
2019,02,14,10,12,989.98
2019,02,14,10,13,989.94
2019,02,14,10,14,989.85
2019,02,14,10,15,989.81
2019,02,14,10,16,989.77
2019,02,14,10,17,989.72
2019,02,14,10,18,989.74
2019,02,14,10,19,989.77
2019,02,14,10,20,989.81
2019,02,14,10,21,989.77
2019,02,14,10,22,989.74
2019,02,14,10,23,989.67
2019,02,14,10,24,989.64
2019,02,14,10,25,989.76
2019,02,14,10,26,989.84
2019,02,14,10,27,989.81
2019,02,14,10,28,989.75
2019,02,14,10,29,989.67
2019,02,14,10,30,989.73
2019,02,14,10,31,989.71
2019,02,14,10,32,989.74
2019,02,14,10,33,989.80
2019,02,14,10,34,989.74
2019,02,14,10,35,989.77
2019,02,14,10,36,989.68
2019,02,14,10,37,989.71
2019,02,14,10,38,989.71
2019,02,14,10,39,989.67
2019,02,14,10,40,989.67
2019,02,14,10,41,989.67
2019,02,14,10,42,989.58
2019,02,14,10,43,989.60
2019,02,14,10,44,989.57
2019,02,14,10,45,989.51
2019,02,14,10,46,989.50
2019,02,14,10,47,989.54
2019,02,14,10,48,989.50
2019,02,14,10,49,989.54
2019,02,14,10,50,989.54
2019,02,14,10,51,989.54
2019,02,14,10,52,989.45
2019,02,14,10,53,989.56
2019,02,14,10,54,989.48
2019,02,14,10,55,989.53
2019,02,14,10,56,989.48
2019,02,14,10,57,989.44
2019,02,14,10,58,989.40
2019,02,14,10,59,989.37
2019,02,14,11,00,989.30
2019,02,14,11,01,989.30
2019,02,14,11,02,989.30
2019,02,14,11,03,989.36
2019,02,14,11,04,989.37
2019,02,14,11,05,989.37
2019,02,14,11,06,989.33
2019,02,14,11,07,989.24
2019,02,14,11,08,989.23
2019,02,14,11,09,989.23
2019,02,14,11,10,989.27
2019,02,14,11,11,989.23
2019,02,14,11,12,989.27
2019,02,14,11,13,989.17
2019,02,14,11,14,989.22
2019,02,14,11,15,989.20
2019,02,14,11,16,989.16
2019,02,14,11,17,989.20
2019,02,14,11,18,989.11
2019,02,14,11,19,989.13
2019,02,14,11,20,989.07
2019,02,14,11,21,989.10
2019,02,14,11,22,989.06
2019,02,14,11,23,989.15
2019,02,14,11,24,989.07
2019,02,14,11,25,989.06
2019,02,14,11,26,989.06
2019,02,14,11,27,989.10
2019,02,14,11,28,989.16
2019,02,14,11,29,989.10
2019,02,14,11,30,989.10
2019,02,14,11,31,989.10
2019,02,14,11,32,989.10
2019,02,14,11,33,989.06
2019,02,14,11,34,989.06
2019,02,14,11,35,989.06
2019,02,14,11,36,989.01
2019,02,14,11,37,989.05
2019,02,14,11,38,989.03
2019,02,14,11,39,989.06
2019,02,14,11,40,989.10
2019,02,14,11,41,989.13
2019,02,14,11,42,989.07
2019,02,14,11,43,989.12
2019,02,14,11,44,988.95
2019,02,14,11,45,988.99
2019,02,14,11,46,989.05
2019,02,14,11,47,989.06
2019,02,14,11,48,989.06
2019,02,14,11,49,988.97
2019,02,14,11,50,988.93
2019,02,14,11,51,989.02
2019,02,14,11,52,989.00
2019,02,14,11,53,989.03
2019,02,14,11,54,988.87
2019,02,14,11,55,988.99
2019,02,14,11,56,988.90
2019,02,14,11,57,988.93
2019,02,14,11,58,988.86
2019,02,14,11,59,988.80
2019,02,14,12,00,988.79
2019,02,14,12,01,988.85
2019,02,14,12,02,988.83
2019,02,14,12,03,988.83
2019,02,14,12,04,988.86
2019,02,14,12,05,988.70
2019,02,14,12,06,988.82
2019,02,14,12,07,988.79
2019,02,14,12,08,988.79
2019,02,14,12,09,988.67
2019,02,14,12,10,988.66
2019,02,14,12,11,988.72
2019,02,14,12,12,988.69
2019,02,14,12,13,988.51
2019,02,14,12,14,988.58
2019,02,14,12,15,988.59
2019,02,14,12,16,988.46
2019,02,14,12,17,988.33
2019,02,14,12,18,988.44
2019,02,14,12,19,988.42
2019,02,14,12,20,988.39
2019,02,14,12,21,988.39
2019,02,14,12,22,988.35
2019,02,14,12,23,988.19
2019,02,14,12,24,988.31
2019,02,14,12,25,988.16
2019,02,14,12,26,988.11
2019,02,14,12,27,988.11
2019,02,14,12,28,988.08
2019,02,14,12,29,988.11
2019,02,14,12,30,987.99
2019,02,14,12,31,988.04
2019,02,14,12,32,987.96
2019,02,14,12,33,988.01
2019,02,14,12,34,987.92
2019,02,14,12,35,987.82
2019,02,14,12,36,987.84
2019,02,14,12,37,987.88
2019,02,14,12,38,987.94
2019,02,14,12,39,987.89
2019,02,14,12,40,987.88
2019,02,14,12,41,987.88
2019,02,14,12,42,987.95
2019,02,14,12,43,987.85
2019,02,14,12,44,987.81
2019,02,14,12,45,987.87
2019,02,14,12,46,987.75
2019,02,14,12,47,987.83
2019,02,14,12,48,987.81
2019,02,14,12,49,987.72
2019,02,14,12,50,987.67
2019,02,14,12,51,987.61
2019,02,14,12,52,987.61
2019,02,14,12,53,987.52
2019,02,14,12,54,987.41
2019,02,14,12,55,987.37
2019,02,14,12,56,987.40
2019,02,14,12,57,987.34
2019,02,14,12,58,987.24
2019,02,14,12,59,987.33
2019,02,14,13,00,987.21
2019,02,14,13,01,987.20
2019,02,14,13,02,987.23
2019,02,14,13,03,987.11
2019,02,14,13,04,987.10
2019,02,14,13,05,987.13
2019,02,14,13,06,987.07
2019,02,14,13,07,987.22
2019,02,14,13,08,987.14
2019,02,14,13,09,987.10
2019,02,14,13,10,987.10
2019,02,14,13,11,987.01
2019,02,14,13,12,987.00
2019,02,14,13,13,986.96
2019,02,14,13,14,987.00
2019,02,14,13,15,986.85
2019,02,14,13,16,986.90
2019,02,14,13,17,986.80
2019,02,14,13,18,986.83
2019,02,14,13,19,986.74
2019,02,14,13,20,986.82
2019,02,14,13,21,986.74
2019,02,14,13,22,986.78
2019,02,14,13,23,986.67
2019,02,14,13,24,986.62
2019,02,14,13,25,986.62
2019,02,14,13,26,986.57
2019,02,14,13,27,986.49
2019,02,14,13,28,986.61
2019,02,14,13,29,986.50
2019,02,14,13,30,986.46
2019,02,14,13,31,986.42
2019,02,14,13,32,986.46
2019,02,14,13,33,986.40
2019,02,14,13,34,986.35
2019,02,14,13,35,986.29
2019,02,14,13,36,986.34
2019,02,14,13,37,986.32
2019,02,14,13,38,986.32
2019,02,14,13,39,986.38
2019,02,14,13,40,986.35
2019,02,14,13,41,986.39
2019,02,14,13,42,986.45
2019,02,14,13,43,986.40
2019,02,14,13,44,986.33
2019,02,14,13,45,986.35
2019,02,14,13,46,986.41
2019,02,14,13,47,986.35
2019,02,14,13,48,986.32
2019,02,14,13,49,986.41
2019,02,14,13,50,986.33
2019,02,14,13,51,986.39
2019,02,14,13,52,986.33
2019,02,14,13,53,986.23
2019,02,14,13,54,986.28
2019,02,14,13,55,986.26
2019,02,14,13,56,986.22
2019,02,14,13,57,986.22
2019,02,14,13,58,986.22
2019,02,14,13,59,986.28
2019,02,14,14,00,986.29
2019,02,14,14,01,986.19
2019,02,14,14,02,986.18
2019,02,14,14,03,986.12
2019,02,14,14,04,986.08
2019,02,14,14,05,986.12
2019,02,14,14,06,985.99
2019,02,14,14,07,985.98
2019,02,14,14,08,985.91
2019,02,14,14,09,985.97
2019,02,14,14,10,985.98
2019,02,14,14,11,985.92
2019,02,14,14,12,985.91
2019,02,14,14,13,985.88
2019,02,14,14,14,985.91
2019,02,14,14,15,985.95
2019,02,14,14,16,985.82
2019,02,14,14,17,985.85
2019,02,14,14,18,985.75
2019,02,14,14,19,985.80
2019,02,14,14,20,985.85
2019,02,14,14,21,985.78
2019,02,14,14,22,985.87
2019,02,14,14,23,985.91
2019,02,14,14,24,985.88
2019,02,14,14,25,985.97
2019,02,14,14,26,986.02
2019,02,14,14,27,985.89
2019,02,14,14,28,985.85
2019,02,14,14,29,985.81
2019,02,14,14,30,985.72
2019,02,14,14,31,985.71
2019,02,14,14,32,985.68
2019,02,14,14,33,985.62
2019,02,14,14,34,985.52
2019,02,14,14,35,985.54
2019,02,14,14,36,985.48
2019,02,14,14,37,985.51
2019,02,14,14,38,985.47
2019,02,14,14,39,985.51
2019,02,14,14,40,985.47
2019,02,14,14,41,985.41
2019,02,14,14,42,985.37
2019,02,14,14,43,985.41
2019,02,14,14,44,985.41
2019,02,14,14,45,985.47
2019,02,14,14,46,985.41
2019,02,14,14,47,985.35
2019,02,14,14,48,985.43
2019,02,14,14,49,985.41
2019,02,14,14,50,985.47
2019,02,14,14,51,985.47
2019,02,14,14,52,985.51
2019,02,14,14,53,985.54
2019,02,14,14,54,985.47
2019,02,14,14,55,985.51
2019,02,14,14,56,985.47
2019,02,14,14,57,985.51
2019,02,14,14,58,985.45
2019,02,14,14,59,985.44
2019,02,14,15,00,985.44
2019,02,14,15,01,985.50
2019,02,14,15,02,985.51
2019,02,14,15,03,985.45
2019,02,14,15,04,985.50
2019,02,14,15,05,985.39
2019,02,14,15,06,985.46
2019,02,14,15,07,985.41
2019,02,14,15,08,985.47
2019,02,14,15,09,985.47
2019,02,14,15,10,985.47
2019,02,14,15,11,985.51
2019,02,14,15,12,985.45
2019,02,14,15,13,985.41
2019,02,14,15,14,985.41
2019,02,14,15,15,985.31
2019,02,14,15,16,985.34
2019,02,14,15,17,985.43
2019,02,14,15,18,985.44
2019,02,14,15,19,985.41
2019,02,14,15,20,985.50
2019,02,14,15,21,985.42
2019,02,14,15,22,985.41
2019,02,14,15,23,985.47
2019,02,14,15,24,985.53
2019,02,14,15,25,985.51
2019,02,14,15,26,985.45
2019,02,14,15,27,985.56
2019,02,14,15,28,985.52
2019,02,14,15,29,985.47
2019,02,14,15,30,985.42
2019,02,14,15,31,985.44
2019,02,14,15,32,985.41
2019,02,14,15,33,985.44
2019,02,14,15,34,985.41
2019,02,14,15,35,985.35
2019,02,14,15,36,985.30
2019,02,14,15,37,985.37
2019,02,14,15,38,985.37
2019,02,14,15,39,985.37
2019,02,14,15,40,985.41
2019,02,14,15,41,985.34
2019,02,14,15,42,985.30
2019,02,14,15,43,985.41
2019,02,14,15,44,985.37
2019,02,14,15,45,985.37
2019,02,14,15,46,985.44
2019,02,14,15,47,985.41
2019,02,14,15,48,985.41
2019,02,14,15,49,985.44
2019,02,14,15,50,985.47
2019,02,14,15,51,985.37
2019,02,14,15,52,985.44
2019,02,14,15,53,985.47
2019,02,14,15,54,985.41
2019,02,14,15,55,985.47
2019,02,14,15,56,985.44
2019,02,14,15,57,985.41
2019,02,14,15,58,985.41
2019,02,14,15,59,985.37
2019,02,14,16,00,985.41
2019,02,14,16,01,985.34
2019,02,14,16,02,985.47
2019,02,14,16,03,985.41
2019,02,14,16,04,985.41
2019,02,14,16,05,985.51
2019,02,14,16,06,985.47
2019,02,14,16,07,985.51
2019,02,14,16,08,985.47
2019,02,14,16,09,985.51
2019,02,14,16,10,985.51
2019,02,14,16,11,985.57
2019,02,14,16,12,985.57
2019,02,14,16,13,985.64
2019,02,14,16,14,985.57
2019,02,14,16,15,985.57
2019,02,14,16,16,985.57
2019,02,14,16,17,985.54
2019,02,14,16,18,985.54
2019,02,14,16,19,985.64
2019,02,14,16,20,985.51
2019,02,14,16,21,985.54
2019,02,14,16,22,985.57
2019,02,14,16,23,985.47
2019,02,14,16,24,985.57
2019,02,14,16,25,985.57
2019,02,14,16,26,985.54
2019,02,14,16,27,985.61
2019,02,14,16,28,985.51
2019,02,14,16,29,985.57
2019,02,14,16,30,985.51
2019,02,14,16,31,985.68
2019,02,14,16,32,985.64
2019,02,14,16,33,985.64
2019,02,14,16,34,985.61
2019,02,14,16,35,985.57
2019,02,14,16,36,985.61